Miscellaneous Local Product
Issued by NWS Hastings, NE

Home | Current Version | Previous Version | Text Only | Print | Product List | Glossary On
Versions: 1 2 3 4 5 6 7 8 9 10 11 12 13 14 15 16 17 18 19 20 21 22 23 24 25 26 27 28 29 30 31 32 33 34 35 36 37 38 39 40 41 42 43 44 45 46 47 48 49 50
000
AXUS43 KGID 252102
MISGRI

GID CWA HOURLY WEATHER ROUNDUP
NATIONAL WEATHER SERVICE HASTINGS NE
400 PM CDT WED MAY 25 2016

NOTE: "FAIR" INDICATES FEW OR NO CLOUDS BELOW 12,000 FEET WITH NO
SIGNIFICANT WEATHER AND/OR OBSTRUCTIONS TO VISIBILITY.

...SOUTH CENTRAL NEBRASKA...

CITY           SKY/WX    TMP DP  RH WIND       PRES   REMARKS
GRAND ISLAND   CLOUDY    78  62  57 W6        29.85F
HASTINGS       PTSUNNY   74  64  71 SW9       29.86F
KEARNEY        PTSUNNY   75  61  60 SE3       29.87F
ORD            SUNNY     78  56  46 VRB5      29.82F
YORK           CLOUDY    75  64  69 SW10      29.85S
AURORA         CLOUDY    77  64  64 SW10      29.85F
LEXINGTON      SUNNY     77  58  52 NW7       29.86F
HOLDREGE       PTSUNNY   75  59  57 SW3       29.87S
HEBRON         CLOUDY    76  68  75 S10       29.85S

...NEBRASKA PANHANDLE...

CITY           SKY/WX    TMP DP  RH WIND       PRES   REMARKS
CHADRON        SUNNY     72  44  36 W9        29.88F
ALLIANCE       SUNNY     73  37  27 W18G24    29.91F
SCOTTSBLUFF    MOSUNNY   72  36  26 W9        29.92S
SIDNEY         CLOUDY    66  39  37 N12       29.95F

...WESTERN AND NORTH CENTRAL NEBRASKA...

CITY           SKY/WX    TMP DP  RH WIND       PRES   REMARKS
VALENTINE      SUNNY     79  47  32 W14       29.82F
AINSWORTH      SUNNY     78  51  39 W12       29.83F
ONEILL         MOSUNNY   80  57  45 W10G20    29.83S
BROKEN BOW     SUNNY     77  56  48 W8        29.85F
IMPERIAL       SUNNY     77  52  41 W7        29.90F
NORTH PLATTE   SUNNY     77  56  48 W7        29.87F
MCCOOK         SUNNY     80  56  43 N5        29.86F

...EASTERN NEBRASKA...

CITY           SKY/WX    TMP DP  RH WIND       PRES   REMARKS
NORFOLK        MOSUNNY   80  59  48 SW13      29.82S
SO SIOUX CITY  MOSUNNY   83  63  50 W17       29.80F
TEKAMAH        PTSUNNY   83  62  49 S17G26    29.82F
COLUMBUS       PTSUNNY   79  61  53 SW7       29.85S
ALBION         MOSUNNY   79  59  50 SW8       29.83F
OMAHA EPPLEY   CLOUDY    79  64  60 S13       29.83S
OFFUTT AFB     CLOUDY    78  65  65 S9        29.83S
MILLARD        CLOUDY    78  65  63 S9        29.84S
LINCOLN        CLOUDY    75  64  68 S12       29.85S
NEBRASKA CITY  PTSUNNY   76  66  71 S14G21    29.85F
BEATRICE       MOSUNNY   75  67  74 S16G26    29.85S
FALLS CITY     MOSUNNY   80  67  64 S13G23    29.85F

...NORTHERN KANSAS...

CITY           SKY/WX    TMP DP  RH WIND       PRES   REMARKS
GOODLAND       SUNNY     75  52  44 S3        29.92F
HILL CITY      CLOUDY    74  61  63 NW5       29.87F
NORTON         PTCLDY    73  55  53 CALM      29.87F
PHILLIPSBURG   CLOUDY    73  63  68 CALM      29.86F
SMITH CENTER   PTSUNNY   73  64  73 W5        29.86F
BELOIT         SUNNY     77  66  69 CALM      29.82F
HAYS           PTSUNNY   70  64  83 N8        29.84F
RUSSELL        PTSUNNY   80  69  69 MISG      29.82S
CONCORDIA      MOSUNNY   77  68  73 CALM      29.83F
SALINA         MOSUNNY   85  72  65 S10       29.80F HX  91
TOPEKA         PTSUNNY   82  66  58 S16G26    29.85F



USA.gov is the U.S. government's official web portal to all federal, state and local government web resources and services.